When you browse on this site, cookies collect data to enhance your experience and personalize the content and advertising you see.
Visit our Privacy Policy to learn more. By continuing to use the site, you agree to this use of cookies and data.
  • In Romania
  • List of Countries
  • For 7 days
  • Water Temperature
  • Satellite Maps
  • Weather Map
  • Weather Widgets
  • user-avatar
    Login

    Hourly Weather Oppola

    Today, 20 February, Wednesday

    Time Temperature Precipitation Wind Pressure Humidity
    00:00 -1°C° 1 mm 4 mps 729 mmHg 95%
    01:00 -1°C° 1 mm 4 mps 728 mmHg 95%
    02:00 -2°C° 0 mm 4 mps 728 mmHg 94%
    03:00 -2°C° 0.6 mm 4 mps 727 mmHg 95%
    04:00 -1°C° 0.6 mm 3 mps 726 mmHg 95%
    05:00 -1°C° 0.6 mm 3 mps 726 mmHg 96%
    06:00 -1°C° 0.3 mm 3 mps 726 mmHg 96%
    07:00 -1°C° 0.3 mm 2 mps 726 mmHg 97%
    08:00 -1°C° 0 mm 2 mps 725 mmHg 97%
    09:00 -1°C° 0.1 mm 2 mps 725 mmHg 98%
    10:00 -1°C° 0.1 mm 2 mps 725 mmHg 99%
    11:00 -1°C° 0.1 mm 2 mps 726 mmHg 99%
    12:00 -1°C° 0.1 mm 2 mps 726 mmHg 99%
    13:00 -1°C° 0.1 mm 2 mps 726 mmHg 99%
    14:00 -1°C° 0.1 mm 2 mps 726 mmHg 99%
    15:00 -1°C° 0.1 mm 2 mps 726 mmHg 99%
    16:00 -1°C° 0.1 mm 2 mps 727 mmHg 98%
    17:00 -1°C° 0.1 mm 2 mps 727 mmHg 98%
    18:00 -1°C° 0.1 mm 2 mps 727 mmHg 97%
    19:00 -2°C° 0.1 mm 2 mps 728 mmHg 96%
    20:00 -2°C° 0.1 mm 3 mps 728 mmHg 95%
    21:00 -4°C° 0.2 mm 4 mps 729 mmHg 93%
    22:00 -7°C° 0.2 mm 4 mps 730 mmHg 91%
    23:00 -8°C° 0.2 mm 5 mps 731 mmHg 90%

    Tomorrow, 21 February, Thursday

    Time Temperature Precipitation Wind Pressure Humidity
    00:00 -10°C° 0.2 mm 6 mps 732 mmHg 88%
    01:00 -11°C° 0.2 mm 6 mps 733 mmHg 87%
    02:00 -11°C° 0.2 mm 6 mps 734 mmHg 86%
    03:00 -12°C° 0.2 mm 6 mps 736 mmHg 85%
    04:00 -14°C° 0.2 mm 7 mps 737 mmHg 84%
    05:00 -14°C° 0.2 mm 7 mps 738 mmHg 83%
    06:00 -15°C° 0.1 mm 7 mps 739 mmHg 81%
    07:00 -15°C° 0.1 mm 6 mps 740 mmHg 79%
    08:00 -15°C° 0.1 mm 6 mps 741 mmHg 77%
    09:00 -15°C° 0 mm 6 mps 742 mmHg 76%
    10:00 -15°C° 0 mm 6 mps 743 mmHg 76%
    11:00 -14°C° 0 mm 7 mps 744 mmHg 75%
    12:00 -14°C° 0 mm 6 mps 745 mmHg 76%
    13:00 -14°C° 0 mm 6 mps 746 mmHg 77%
    14:00 -14°C° 0 mm 6 mps 746 mmHg 78%
    15:00 -13°C° 0.1 mm 5 mps 747 mmHg 80%
    16:00 -13°C° 0.1 mm 5 mps 748 mmHg 81%
    17:00 -13°C° 0.1 mm 5 mps 748 mmHg 83%
    18:00 -14°C° 0 mm 5 mps 749 mmHg 84%
    19:00 -14°C° 0 mm 5 mps 750 mmHg 85%
    20:00 -15°C° 0 mm 5 mps 751 mmHg 85%
    21:00 -15°C° 0 mm 5 mps 751 mmHg 86%
    22:00 -15°C° 0 mm 5 mps 752 mmHg 87%
    23:00 -15°C° 0 mm 5 mps 752 mmHg 88%

    Day after tomorrow, 22 February, Friday

    Time Temperature Precipitation Wind Pressure Humidity
    00:00 -15°C° 0 mm 5 mps 753 mmHg 87%
    01:00 -14°C° 0 mm 5 mps 754 mmHg 87%
    02:00 -14°C° 0 mm 5 mps 754 mmHg 87%
    03:00 -14°C° 0 mm 5 mps 755 mmHg 87%
    04:00 -14°C° 0 mm 5 mps 755 mmHg 87%
    05:00 -14°C° 0 mm 5 mps 756 mmHg 87%
    06:00 -14°C° 0 mm 4 mps 757 mmHg 87%
    07:00 -14°C° 0 mm 4 mps 757 mmHg 87%
    08:00 -12°C° 0 mm 4 mps 758 mmHg 87%
    09:00 -13°C° 0 mm 5 mps 759 mmHg 86%
    10:00 -12°C° 0 mm 5 mps 759 mmHg 85%
    11:00 -12°C° 0 mm 5 mps 760 mmHg 84%
    12:00 -12°C° 0 mm 5 mps 760 mmHg 83%
    13:00 -12°C° 0 mm 5 mps 761 mmHg 81%
    14:00 -11°C° 0 mm 4 mps 761 mmHg 80%
    15:00 -12°C° 0 mm 4 mps 762 mmHg 83%
    16:00 -14°C° 0 mm 4 mps 762 mmHg 85%
    17:00 -14°C° 0 mm 3 mps 763 mmHg 87%
    18:00 -15°C° 0 mm 3 mps 763 mmHg 89%
    19:00 -16°C° 0 mm 3 mps 764 mmHg 92%
    20:00 -16°C° 0 mm 2 mps 764 mmHg 94%
    21:00 -16°C° 0 mm 2 mps 764 mmHg 93%
    22:00 -17°C° 0 mm 2 mps 764 mmHg 91%
    23:00 -17°C° 0 mm 2 mps 764 mmHg 90%

    23 February, Saturday

    Time Temperature Precipitation Wind Pressure Humidity
    00:00 -16°C° 0 mm 1 mps 764 mmHg 89%
    01:00 -16°C° 0 mm 1 mps 764 mmHg 88%
    02:00 -17°C° 0 mm 0 mps 764 mmHg 87%
    03:00 -16°C° 0 mm 1 mps 763 mmHg 87%
    04:00 -16°C° 0 mm 1 mps 763 mmHg 87%
    05:00 -18°C° 0 mm 2 mps 762 mmHg 88%
    06:00 -17°C° 0 mm 2 mps 762 mmHg 86%
    07:00 -16°C° 0 mm 3 mps 761 mmHg 84%
    08:00 -16°C° 0 mm 4 mps 760 mmHg 82%
    09:00 -15°C° 0.1 mm 4 mps 759 mmHg 82%
    10:00 -14°C° 0.1 mm 5 mps 759 mmHg 83%
    11:00 -14°C° 0.1 mm 6 mps 758 mmHg 84%
    12:00 -14°C° 0.3 mm 6 mps 757 mmHg 86%
    13:00 -12°C° 0.3 mm 6 mps 756 mmHg 88%
    14:00 -12°C° 0.3 mm 7 mps 755 mmHg 90%
    15:00 -10°C° 0.2 mm 6 mps 754 mmHg 91%
    16:00 -10°C° 0.2 mm 6 mps 754 mmHg 91%
    17:00 -10°C° 0.2 mm 5 mps 753 mmHg 92%
    18:00 -8°C° 0.1 mm 5 mps 753 mmHg 93%
    19:00 -8°C° 0.1 mm 4 mps 752 mmHg 94%
    20:00 -7°C° 0.1 mm 4 mps 752 mmHg 95%
    21:00 -6°C° 0.1 mm 3 mps 752 mmHg 95%
    22:00 -5°C° 0.1 mm 3 mps 752 mmHg 95%
    23:00 -5°C° 0.1 mm 3 mps 752 mmHg 96%

    24 February, Sunday

    Time Temperature Precipitation Wind Pressure Humidity
    00:00 -4°C° 0 mm 3 mps 752 mmHg 96%
    01:00 -2°C° 0 mm 2 mps 753 mmHg 96%
    02:00 -2°C° 0 mm 2 mps 753 mmHg 97%
    03:00 -2°C° 0 mm 2 mps 753 mmHg 96%
    04:00 -3°C° 0 mm 2 mps 753 mmHg 96%
    05:00 -3°C° 0 mm 2 mps 754 mmHg 96%
    06:00 -4°C° 0 mm 2 mps 754 mmHg 96%
    07:00 -5°C° 0 mm 2 mps 754 mmHg 97%
    08:00 -6°C° 0 mm 2 mps 754 mmHg 97%
    09:00 -5°C° 0 mm 2 mps 754 mmHg 96%
    10:00 -4°C° 0 mm 2 mps 755 mmHg 96%
    11:00 -3°C° 0 mm 2 mps 755 mmHg 95%
    12:00 -2°C° 0 mm 2 mps 754 mmHg 95%
    13:00 -2°C° 0 mm 2 mps 754 mmHg 95%
    14:00 -2°C° 0 mm 2 mps 754 mmHg 95%
    15:00 -3°C° 0 mm 2 mps 754 mmHg 95%
    16:00 -4°C° 0 mm 2 mps 753 mmHg 95%
    17:00 -5°C° 0 mm 2 mps 753 mmHg 96%
    18:00 -5°C° 0 mm 3 mps 752 mmHg 95%
    19:00 -4°C° 0 mm 3 mps 752 mmHg 94%
    20:00 -4°C° 0 mm 4 mps 751 mmHg 94%
    21:00 -4°C° 0 mm 4 mps 751 mmHg 93%
    22:00 -4°C° 0 mm 4 mps 750 mmHg 93%
    23:00 -4°C° 0 mm 4 mps 749 mmHg 93%

    25 February, Monday

    Time Temperature Precipitation Wind Pressure Humidity
    00:00 -3°C° 0.2 mm 4 mps 748 mmHg 94%
    01:00 -3°C° 0.2 mm 4 mps 748 mmHg 95%
    02:00 -2°C° 0.2 mm 4 mps 747 mmHg 96%
    03:00 -2°C° 1.2 mm 4 mps 746 mmHg 96%
    04:00 -2°C° 1.2 mm 4 mps 745 mmHg 96%
    05:00 -1°C° 1.2 mm 4 mps 745 mmHg 95%
    06:00 -2°C° 0.1 mm 5 mps 745 mmHg 92%
    07:00 -2°C° 0.1 mm 5 mps 744 mmHg 89%
    08:00 -3°C° 0.1 mm 6 mps 744 mmHg 86%
    09:00 -4°C° 0 mm 5 mps 744 mmHg 87%
    10:00 -4°C° 0 mm 5 mps 744 mmHg 88%
    11:00 -5°C° 0 mm 5 mps 744 mmHg 89%
    12:00 -3°C° 0.1 mm 4 mps 744 mmHg 89%
    13:00 -3°C° 0.1 mm 4 mps 744 mmHg 90%
    14:00 -3°C° 0.1 mm 4 mps 743 mmHg 90%
    15:00 -3°C° 0.2 mm 4 mps 743 mmHg 90%
    16:00 -2°C° 0.2 mm 3 mps 742 mmHg 90%
    17:00 -2°C° 0.2 mm 3 mps 741 mmHg 89%
    18:00 -2°C° 0.3 mm 3 mps 741 mmHg 89%
    19:00 -2°C° 0.3 mm 4 mps 741 mmHg 89%
    20:00 -2°C° 0.3 mm 4 mps 741 mmHg 89%
    21:00 -2°C° 0.2 mm 4 mps 742 mmHg 89%
    22:00 -2°C° 0.2 mm 5 mps 742 mmHg 88%
    23:00 -2°C° 0.2 mm 5 mps 743 mmHg 88%
    Show more